#timestamp,LO_Frequency,Hit,StdDev 
1678546815.2,286046995.0,N
1678546835.9,286046993.6,N
1678546855.7,286046993.1,N
1678546875.6,286046991.7,N
1678546895.4,286046991.0,N
1678546915.2,286046989.3,N
1678546935.1,286046985.8,N
1678546936.0,286046985.8,N
1678546955.8,286046985.3,N
1678546975.7,286046985.6,N
1678546995.5,286046989.8,N
1678547015.3,286046985.0,N
1678547035.2,286046979.5,Y
1678547055.0,286046982.8,P
1678547055.9,286046982.8,N
1678547075.7,286046980.1,P
1678547095.6,286046981.5,N
1678547115.4,286046976.2,Y
1678547135.3,286046989.2,P
1678547155.1,286046984.6,P
1678547175.8,286046981.7,P
1678547195.7,286046978.9,Y
1678547215.5,286046995.8,P
1678547235.4,286046998.5,N
1678547255.2,286046998.7,N
1678547275.0,286047000.0,N
1678547275.9,286047000.0,N
1678547295.8,286046996.6,N
1678547315.6,286046999.7,N
1678547335.4,286047006.0,N
1678547355.3,286047006.0,N
1678547375.1,286046998.5,N
1678547395.9,286046995.3,N
1678547415.7,286046996.4,N
1678547435.5,286046994.8,N
1678547455.4,286046994.8,N
1678547475.2,286046992.8,N
1678547495.0,286046990.6,N
1678547495.9,286046990.6,N
1678547515.8,286046990.7,N
1678547535.6,286046989.6,N
1678547555.5,286046991.6,N
1678547575.3,286046995.1,N
1678547595.1,286047003.0,N
1678547615.9,286047008.2,N
1678547635.7,286047013.4,N
1678547655.5,286047014.2,N
1678547675.4,286047017.8,N
1678547695.2,286047020.6,N
1678547715.1,286047027.5,Y
1678547716.0,286047027.5,P
1678547735.8,286047031.4,N
1678547755.6,286047030.9,N
1678547775.5,286047027.5,N
1678547795.3,286047022.1,N
1678547815.1,286047020.4,N
1678547835.9,286047017.2,N
1678547855.7,286047010.6,N
1678547875.5,286047010.1,N
1678547895.4,286047003.2,N
1678547915.2,286047002.3,N
1678547935.1,286046998.2,N
1678547936.0,286046998.2,N
1678547955.8,286047000.3,N
1678547975.6,286046998.7,N
1678547995.5,286046996.1,N
1678548015.3,286046994.6,N
1678548035.2,286046993.1,N
1678548055.9,286046988.5,N
1678548075.7,286046992.3,N
1678548095.6,286046993.4,N
1678548115.4,286046993.3,N
1678548135.2,286046994.1,N
1678548155.1,286046994.7,N
1678548156.0,286046994.7,N
1678548175.8,286046993.4,N
1678548195.6,286046992.6,N
1678548215.5,286046993.1,N
1678548235.3,286046996.9,N
1678548255.2,286047003.3,N
1678548275.9,286047005.8,N
1678548295.7,286047010.1,N
1678548315.6,286047016.3,N
1678548335.4,286047017.1,N
1678548355.2,286047012.1,N
1678548375.1,286047010.5,N
1678548376.0,286047010.5,N
1678548395.8,286047006.6,N
1678548415.7,286047008.5,N
1678548435.5,286047008.6,N
1678548455.3,286047003.1,N
1678548475.2,286047000.4,N
1678548495.0,286046996.4,N
1678548495.9,286046996.4,N
1678548515.8,286046989.3,N
1678548535.6,286046984.6,N
1678548555.4,286046985.4,N
1678548575.3,286046987.0,N
1678548595.1,286046984.9,N
1678548615.8,286046979.0,N
1678548635.7,286046976.6,N
1678548655.5,286046975.5,N
1678548675.4,286046973.3,N
1678548695.2,286046971.0,N
1678548715.0,286046975.1,N
1678548715.9,286046975.1,N
1678548735.8,286046975.1,N
1678548755.6,286046978.4,N
1678548775.4,286046977.4,N
1678548795.3,286046980.7,N
1678548815.1,286046985.2,N
1678548835.9,286046983.9,N
1678548855.7,286046986.4,N
1678548875.5,286046988.3,N
1678548895.4,286046986.1,N
1678548915.2,286046981.4,N
1678548935.0,286046980.2,N
1678548935.9,286046980.2,N
1678548955.8,286046979.5,N
1678548975.6,286046975.6,N
1678548995.5,286046975.0,Y
1678549015.3,286046994.9,P
1678549035.1,286047000.8,N
1678549055.9,286047002.9,N
1678549075.7,286047004.9,N
1678549095.5,286047008.5,N
1678549115.4,286047006.3,N
1678549135.2,286047002.9,N
1678549155.1,286047001.5,N
1678549156.0,286047001.5,N
1678549175.8,286046999.5,N
1678549195.6,286046993.9,N
1678549215.5,286046999.3,N
1678549235.3,286046995.8,N
1678549255.1,286046992.8,N
1678549275.9,286046985.3,N
1678549295.7,286046983.7,N
1678549315.6,286046987.6,N
1678549335.4,286046991.9,N
1678549355.2,286046992.0,N
1678549375.1,286046993.8,N
1678549376.0,286046993.8,N
1678549395.8,286046995.9,N
1678549415.6,286046994.5,N
1678549435.5,286046989.5,N
1678549455.3,286046984.9,N
1678549475.2,286046987.2,N
1678549495.9,286046989.3,N
1678549515.7,286046989.5,N
1678549535.6,286046988.4,N
1678549555.4,286046986.5,N
1678549575.2,286046979.5,Y
1678549595.1,286046980.5,P
1678549596.0,286046980.5,N
1678549615.8,286046976.2,P
1678549635.7,286046973.2,Y
1678549655.5,286046988.4,P
1678549675.3,286046983.6,P
1678549695.2,286046981.6,P
1678549715.0,286046980.0,Y
1678549715.9,286046980.0,P
1678549735.8,286046992.5,P
1678549755.6,286046994.2,N
1678549775.4,286046994.2,N
1678549795.3,286046997.5,N
1678549815.1,286046993.4,N
1678549816.0,286046993.4,N
1678549835.8,286046993.7,N
1678549855.7,286046991.3,N
1678549875.5,286046988.7,N
1678549895.3,286046985.6,N
1678549915.2,286046988.0,N
1678549935.0,286046987.8,N
1678549935.9,286046987.8,N
1678549955.8,286046984.4,Y
1678549975.6,286046998.0,P
1678549995.4,286046993.3,N
1678550015.3,286046996.0,N
1678550035.1,286046997.2,N
1678550055.8,286046998.6,N
1678550075.7,286046998.1,N
1678550095.5,286047002.8,N
1678550115.4,286046999.8,N
1678550135.2,286047001.2,N
1678550155.0,286046997.5,N
1678550155.9,286046997.5,N
1678550175.8,286046999.3,N
1678550195.6,286047002.7,N
1678550215.5,286046997.8,N
1678550235.3,286046995.4,N
1678550255.1,286046995.8,N
1678550275.9,286046997.8,N
1678550295.7,286047000.9,N
1678550315.6,286046998.5,N
1678550335.4,286046994.9,N
1678550355.2,286046993.7,N
1678550375.1,286046993.4,N
1678550376.0,286046993.4,N
1678550395.8,286046992.4,N
